EDT,Max TemperatureF,Mean TemperatureF,Min TemperatureF,Max Dew PointF,MeanDew PointF,Min DewpointF,Max Humidity, Mean Humidity, Min Humidity, Max Sea Level PressureIn, Mean Sea Level PressureIn, Min Sea Level PressureIn, Max VisibilityMiles, Mean VisibilityMiles, Min VisibilityMiles, Max Wind SpeedMPH, Mean Wind SpeedMPH, Max Gust SpeedMPH,PrecipitationIn, CloudCover, Events, WindDirDegrees
2013-5-1,62,48,34,47,40,32,100,88,54,30.48,30.43,30.36,10,6,0,13,4,18,0.00,1,Fog,60
2013-5-2,66,48,32,47,39,30,100,84,40,30.46,30.43,30.38,10,6,0,18,4,23,0.00,2,Fog,4
2013-5-3,54,44,36,43,41,34,100,81,62,30.46,30.41,30.35,10,10,10,22,10,29,0.00,4,,37
2013-5-4,57,46,35,43,39,34,100,79,51,30.35,30.32,30.29,10,9,1,22,7,29,0.00,2,,47
2013-5-5,57,48,42,43,42,37,96,78,49,30.30,30.28,30.26,10,10,10,17,10,23,0.00,5,,73
2013-5-6,64,54,44,49,46,43,100,89,56,30.29,30.23,30.19,10,6,0,10,4,,0.00,5,Fog,107
2013-5-7,70,56,44,58,52,45,100,93,68,30.19,30.17,30.15,10,6,0,12,2,,0.00,5,Fog,93
2013-5-8,71,63,55,62,58,54,100,89,73,30.19,30.13,30.05,10,8,0,20,10,31,0.01,6,Fog-Rain,132
2013-5-9,66,58,51,61,56,52,100,94,73,30.04,29.96,29.90,10,4,0,13,4,20,0.01,8,Fog-Rain,183
2013-5-10,75,63,53,57,54,50,100,86,43,29.99,29.95,29.91,10,6,0,17,7,20,0.00,3,Fog,242
2013-5-11,64,59,55,61,57,55,100,95,78,29.97,29.86,29.75,10,5,0,20,12,29,0.68,7,Fog-Rain,200
2013-5-12,64,58,52,61,54,37,100,90,53,29.82,29.68,29.63,10,5,0,17,11,25,0.23,6,Fog-Rain,219
2013-5-13,57,47,39,40,33,27,79,51,37,30.00,29.96,29.86,10,10,10,22,10,32,0.00,1,,261
2013-5-14,57,50,44,41,35,28,80,57,37,30.06,30.02,29.99,10,10,10,18,11,23,0.00,5,Rain,297
2013-5-15,61,52,43,54,47,41,97,81,53,30.08,29.97,29.77,10,10,6,24,10,33,0.02,5,Rain,210
2013-5-16,73,62,51,54,49,43,100,70,36,29.80,29.74,29.70,10,9,4,17,8,26,0.00,0,,237
2013-5-17,64,53,41,47,43,38,93,64,39,30.22,30.02,29.80,10,10,10,17,7,25,0.00,1,,17
2013-5-18,66,50,37,52,45,34,93,77,52,30.33,30.29,30.23,10,9,2,15,4,18,0.00,0,,230
2013-5-19,68,52,39,54,45,37,100,84,47,30.38,30.33,30.25,10,7,0,15,3,,0.08,3,Fog-Rain,190
2013-5-20,72,63,55,63,58,54,100,92,70,30.25,30.08,29.97,10,6,1,16,10,23,0.13,7,Rain,221
2013-5-21,71,62,55,63,59,54,100,90,73,29.98,29.94,29.89,10,6,0,15,6,21,0.00,5,Fog,239
2013-5-22,70,62,53,61,57,52,100,90,73,29.97,29.94,29.92,10,5,0,14,8,20,0.00,8,Fog-Rain,209
2013-5-23,69,64,59,63,61,59,100,93,78,29.99,29.95,29.89,10,4,0,23,14,32,0.30,8,Fog-Rain,207
2013-5-24,66,62,55,63,60,54,100,96,90,29.89,29.75,29.69,10,3,0,31,14,46,1.62,8,Fog-Rain,211
2013-5-25,55,48,42,53,49,41,100,91,82,29.76,29.71,29.68,10,6,2,15,9,24,0.27,8,Rain,325
2013-5-26,62,51,43,40,38,37,89,65,44,30.11,29.88,29.75,10,10,7,17,12,30,0.02,6,Rain,292
2013-5-27,69,57,46,44,41,38,86,56,36,30.18,30.14,30.11,10,10,10,18,10,28,0.00,0,,259
2013-5-28,68,52,39,56,49,37,96,77,50,30.25,30.22,30.19,10,10,4,13,5,,0.02,2,Rain,206
2013-5-29,66,60,57,59,57,55,100,91,81,30.23,30.13,30.05,10,6,1,21,12,30,0.85,7,Rain,199
2013-5-30,80,69,59,66,60,57,96,81,64,30.11,30.08,30.04,10,9,4,13,8,,0.12,2,Rain-Thunderstorm,229
2013-5-31,84,70,57,66,61,56,97,74,53,30.11,30.06,30.01,10,9,5,12,7,22,0.00,0,,227